www.pogodaiklimat.ru

Погода и климат >> Архив погоды >> Россия >> Тамбовская область >> Жердевка


ПОГОДА в Жердевке

  • Прогноз погоды в Жердевке
  • Монитор погоды в Жердевке

АРХИВ ПОГОДЫ в Жердевке

Время (UTC), дата Ветер
(напр.,м/с)
 
Видим.   Явления Облачность Т
(С)
Тd
(С)
f
(%)
Тe
(С)
Тes
(С)
Комфортность P
(гПа)
Po
(гПа)
Тmin
(С)
Tmax
(С)
R
(мм)
R24
(мм)
S
(см)
00 13.08 З 2 20 км ясно +11.6 +7.7 77 +11 +11 1019.4 1001.6
03 13.08 штиль 0 10 км 3/0
[Ac trans]
+10.6 +8.8 89 +10 +10 1020.0 1002.1 +9.3
06 13.08 З 1 20 км 3/0
[Ac trans]
+20.6 +8.1 45 +23 +30 комфорт 1019.2 1001.9
09 13.08 С 1 20 км 5/4 1000 м
[Cu med, cong Ci fib]
+24.3 +8.8 37 +25 +34 комфорт 1017.6 1000.6
12 13.08 СЗ 3 50 км 8/4 1000 м
[Cu med, cong Ci fib]
+26.3 +7.6 30 +26 +30 жарко 1016.8 999.9
15 13.08 З 1 20 км 9/0
[Ci fib]
+25.4 +11.3 41 +27 +28 жарко 1015.6 998.8 +27.2
18 13.08 Ю 2 20 км 9/0
[Ac trans Ci fib]
+21.0 +11.2 53 +24 +24 комфорт 1015.7 998.6
21 13.08 Ю 4 20 км 8/0
[Ac trans]
+20.0 +10.4 54 +21 +21 комфорт 1015.7 998.5
00 14.08 Ю 3 20 км 8/0
[Ac trans]
+18.2 +10.9 62 +19 +19 1014.4 997.1
03 14.08 Ю 4 10 км 8/0
[Ac trans]
+18.2 +11.9 67 +18 +18 1013.4 996.1 +17.6
06 14.08 З 3 20 км 4/0
[Ci sp]
+24.8 +14.6 53 +27 +33 жарко 1012.8 996.0
09 14.08 З 4 20 км 5/0
[Ac trans]
+29.3 +16.4 46 +33 +39 душно 1012.2 995.6
12 14.08 З 4 20 км 6/0
[Ci fib]
+31.9 +17.4 42 +36 +41 очень
душно
1011.7 995.3
15 14.08 З 3 20 км 5/0
[Ci fib]
+31.4 +17.3 43 +35 +36 очень
душно
1011.6 995.1 +32.0
18 14.08 СВ 1 20 км ясно +26.1 +17.1 58 +30 +30 душно 1012.8 996.1
21 14.08 штиль 0 20 км ясно +21.7 +17.8 78 +26 +26 душно 1013.4 996.3
00 15.08 В 1 20 км ясно +20.0 +17.7 87 +24 +24 комфорт 1013.4 996.3
03 15.08 Ю 2 10 км ясно +19.4 +17.6 89 +22 +22 комфорт 1014.0 996.8 +19.1
06 15.08 ЮЗ 2 20 км ясно +28.1 +13.9 42 +30 +38 жарко 1013.6 996.9
09 15.08 Ю 5 20 км ясно +31.5 +11.0 28 +31 +38 жарко 1013.0 996.5
12 15.08 Ю 4 50 км 1/0
[Ci fib]
+33.3 +11.7 27 +33 +39 жарко 1011.9 995.5
15 15.08 Ю 5 50 км 4/0
[Ci fib]
+32.5 +11.3 27 +32 +33 жарко 1011.2 994.7 +33.4
18 15.08 Ю 1 20 км 5/0
[Ac trans Ci fib]
+26.5 +14.1 46 +29 +29 жарко 1011.6 994.9
21 15.08 В 1 20 км 8/3 600 м
[Cb cap Ac trans Ci fib]
+23.2 +14.6 58 +27 +27 душно 1011.8 994.8
00 16.08 ЮВ 2 20 км 8/3 600 м
[Cb cap Ac trans]
+23.7 +15.6 60 +27 +27 жарко 1011.0 994.1
03 16.08 ЮВ 2 10 км 8/0
[Ac trans]
+21.5 +15.5 69 +25 +25 комфорт 1010.9 993.9 +21.3
06 16.08 Ю 3 10 км 9/0
[Ac trans Ci fib]
+27.3 +13.9 44 +29 +33 жарко 1010.1 993.4
09 16.08 Ю 2 10 км 9/0
[Ac und]
+28.9 +13.5 39 +31 +36 жарко 1009.1 992.6
12 16.08 Ю 5 20 км 9/0
[Ac und Ci fib]
+31.1 +11.1 29 +31 +34 жарко 1008.3 991.9
15 16.08 Ю 6
{10}
20 км 8/3 600 м
[Cb cap Ac trans]
+28.9 +11.2 33 +29 +30 жарко 1007.9 991.4 +31.5
18 16.08 ЮВ 1 10 км 8/5 600 м
[Cb cap Ac trans]
+24.4 +11.1 43 +26 +26 жарко 1008.6 991.7
21 16.08 ЮВ 2 10 км 8/8 700 м
[Cb cap]
+23.9 +12.0 47 +26 +26 жарко 1008.3 991.4
00 17.08 ЮВ 2 10 км 9/9 660 м
[Cb cap]
+21.7 +12.5 56 +24 +24 комфорт 1007.9 990.9
03 17.08 ЮВ 2 10 км 8/6 600 м
[Cb cap Ac trans]
+20.8 +12.5 59 +24 +24 комфорт 1007.5 990.5 +20.6
06 17.08 Ю 4 10 км слаб. ливневой дождь 10/8 660 м
[Cb cap As trans]
+21.7 +14.2 62 +25 +25 комфорт 1008.8 991.8
09 17.08 СВ 1 10 км в посл. час ливневой дождь 10/10 660 м
[Cb cap]
+20.2 +19.0 93 +25 +25 комфорт 1009.6 992.6
12 17.08 СВ 2 20 км {ливн. осадки} 10/10 700 м
[Cb cap]
+23.1 +19.2 79 +29 +29 очень
душно
1009.2 992.3
15 17.08 Ю 5 10 км слаб. ливневой дождь 10/10 570 м
[Cb cap]
+20.7 +17.8 83 +24 +24 комфорт 1009.3 992.3 +23.2 3
18 17.08 З 1 20 км {ливн. осадки} 3/3 600 м
[Cb cap]
+16.0 +14.0 88 +17 +17 1008.6 991.3
21 17.08 Ю 1 20 км ясно +15.3 +14.2 93 +16 +16 1008.8 991.5
00 18.08 ЮЗ 1 10 км ясно +14.8 +13.7 93 +15 +15 1009.3 992.0
03 18.08 Ю 2 10 км 8/0
[Ac lent Ci fib]
+15.3 +14.2 93 +15 +15 1010.2 992.9 +13.9 0.0
06 18.08 ЮВ 1 10 км 5/4 600 м
[Cb cap Ci fib]
+22.1 +18.3 79 +27 +32 душно 1010.4 993.5
09 18.08 Ю 2 10 км 8/8 700 м
[Cb cap]
+25.2 +17.7 63 +29 +32 душно 1011.0 994.2
12 18.08 СЗ 2 20 км 8/8 700 м
[Cb cap]
+26.8 +17.3 56 +31 +33 душно 1011.6 994.9
15 18.08 С 2 20 км 8/4 600 м
[Cb cap Ac trans]
+25.8 +17.4 60 +30 +30 душно 1010.9 994.1 +27.4
18 18.08 В 2 10 км зарница 10/10 660 м
[Cb cap]
+21.7 +17.7 78 +26 +26 душно 1013.2 996.1
21 18.08 З 2 10 км слаб. ливневой дождь {гроза} 10/10 570 м
[Cb cap]
+19.2 +18.6 96 +22 +22 комфорт 1013.9 996.7
00 19.08 З 1 4000 м дымка {гроза, ливн. осадки} 8/0
[Ac trans]
+18.3 +17.5 95 +20 +20 1014.9 997.7
03 19.08 СЗ 2 4000 м дымка 9/0
[Ac trans]
+18.5 +17.8 96 +20 +20 1015.6 998.4 +18.0 16
06 19.08 С 2 4000 м дымка 10/10 720 м
[Cb cap]
+19.4 +18.4 94 +22 +22 комфорт 1016.3 999.1
09 19.08 С 3 10 км 6/0
[Cc]
+23.6 +17.4 68 +27 +37 жарко 1017.0 1000.0
12 19.08 С 3 20 км 8/0
[Cs]
+24.6 +15.8 58 +28 +34 душно 1017.7 1000.8
15 19.08 С 3 20 км 8/6 600 м
[Cb cap Ac trans]
+23.4 +16.5 65 +28 +28 душно 1018.2 1001.2 +25.3
18 19.08 СЗ 2 10 км 8/3 600 м
[Cb cap Ac trans]
+20.6 +17.0 80 +25 +25 комфорт 1019.5 1002.3
21 19.08 СЗ 2 10 км 3/0
[Ac trans]
+18.5 +16.5 88 +20 +20 1019.8 1002.5

 

Местоположение метеостанции Жердевка (Тамбовская область, Россия): широта 51.83 долгота 41.48 высота над уровнем моря 147 м.

В архиве по умолчанию представлена погода в Жердевке за последнюю неделю. Архивные данные за месяц целиком и за предыдущие месяцы, начиная с января 2011 года, Вы можете получить, выбрав интересующий диапазон дат из раскрывающегося списка и нажав кнопку "Ввод!".


*Определитесь, кто Вы:
робот инопланетянин человек

Внимание! Время в таблицах - всемирное. Для получения местного времени необходимо прибавить поправку, которая равна 3 ч.

Смотрите также архив погоды в соседних городах и на ближайших метеорологических станциях:

Погода в Обловке (Тамбовская область, Россия) (56 км)
Погода в Совхозе им. Ленина (Тамбовская область, Россия) (59 км)
Погода в Борисоглебске (Воронежская область, Россия) (66 км)
Погода в Анне (Воронежская область, Россия) (83 км)
Погода в Каменной Степи (Воронежская область, Россия) (102 км)
Погода в Тамбове (Тамбовская область, Россия) (108 км)
Погода в Балашове (Саратовская область, Россия) (119 км)
Погода в Урюпинске (Волгоградская область, Россия) (120 км)
Погода в Кирсанове (Тамбовская область, Россия) (126 км)
Погода в Мичуринске (Тамбовская область, Россия) (135 км)

Пояснения к столбцам:

Ветер - указаны скорость ветра в м/с - средняя за 10 мин, порывы в срок и между сроками (в фигурных скобках) и направление, откуда дует ветер: С - северный, СВ - северо-восточный, В - восточный, ЮВ - юго-восточный, Ю - южный, ЮЗ - юго-западный, З - западный, СЗ - северо-западный.
Видимость - горизонтальная дальность видимости в метрах или километрах. При видимости от 1 до 10 км при отсутствии осадков обычно наблюдается дымка, при ухудшении видимости до 1 км и менее - туман. В сухую погоду видимость может ухудшаться дымом, пылью или мглою.
Явления - указаны атмосферные явления, наблюдавшиеся в срок или в последний час перед сроком; фигурными скобками обозначены явления, наблюдавшиеся между сроками (за 1-3 часа до срока); квадратными скобками обозначены град или гололедные отложения с указанием их диаметра в мм.
Облачность - указаны через наклонную черту общая и нижняя облачность в баллах и высота нижней границы облаков в метрах; квадратными скобками обозначены формы облаков: Ci - перистые, Cs - перисто-слоистые, Cc - перисто-кучевые, Ac - высококучевые, As - высокослоистые, Sc - слоисто-кучевые, Ns - слоисто-дождевые, Cu - кучевые, Cb - кучево-дождевые. Подробнее классификацию облаков см. в Атласе облаков (PDF).
T - Температура воздуха - температура, измеренная на высоте 2 м над землей.
Td - Температура точки росы - температура, при понижении до которой содержащийся в воздухе водяной пар достигнет насыщения.
f - Относительная влажность воздуха - влажноcть воздуха, измеренная на высоте 2 м над землей.
Te - Эффективная температура - температура, которую ощущает одетый по сезону человек в тени. Характеристика душности погоды. При расчете учитывается влияние влажности воздуха и скорости ветра на теплоощущения человека.
Tes - Эффективная температура на солнце - температура, которую ощущает человек, с поправкой на солнечный нагрев. Характеристика знойности погоды. Зависит от высоты солнца над горизонтом, облачности и скорости ветра. Ночью, в пасмурную погоду, а также при ветре 12 м/с и более поправка равна нулю.
P - Атмосферное давление - приведенное к уровню моря атмосферное давление.
Po - Атмосферное давление - измеренное на уровне метеостанции атмосферное давление.
Tmin - Минимальная температура - минимум температуры воздуха на высоте 2 м над землей.
Tmax - Максимальная температура - максимум температуры воздуха на высоте 2 м над землей.
R - Количество осадков - Количество выпавших осадков за период времени, мм. При наведении курсора мыши на число - период времени, за который выпало указанное количество осадков.
R24 - Количество осадков - Количество выпавших осадков за 24 часа, мм.
S - Снежный покров - Высота снежного покрова, см. При наведении курсора мыши на число - состояние снежного покрова и степень покрытия местности в баллах.